Location: Township of Marena
(38.1747°N, 99.6798°W)
Time: 03:22:22
(UTC+00:00)

Cosmos 1656 - Pass Details

Date: 26 October 2020
Orbit: 796 x 851 km, 71.1° (Epoch: 24 November)

Event Time Altitude Azimuth Distance (km) Brightness Sun altitude
Rises 00:37:28 0° 185° (S) 3,317 7.0 -10.6°
Reaches altitude 10° 00:39:55 10° 180° (S) 2,397 6.2 -11.1°
Maximum altitude 00:45:12 50° 107° (ESE) 1,046 3.8 -12.1°
Drops below altitude 10° 00:50:35 10° 33° (NNE) 2,448 5.7 -13.1°
Sets 00:53:07 0° 28° (NNE) 3,394 6.5 -13.6°
